Location: Derby
(52.9213°N, 1.4761°W)
Time: 18:02:13
(UTC+01:00)

Tiros 1 - Pass Details

Date: 22 May 2025
Orbit: 620 x 651 km, 48.4° (Epoch: 13 June)

Event Time Altitude Azimuth Distance (km) Brightness Sun altitude
Rises 17:37:24 0° 215° (SW) 2,884 11.0 29.0°
Reaches altitude 10° 17:40:05 10° 201° (SSW) 1,983 10.1 28.6°
Maximum altitude 17:43:37 22° 150° (SSE) 1,354 8.7 28.1°
Drops below altitude 10° 17:47:10 10° 99° (E) 2,000 9.2 27.5°
Sets 17:49:53 0° 85° (E) 2,915 10.0 27.1°
